CAPE
0 28 18 9 0 1 5 10 0 0 3 3 5 40 23 62 19 127 546 583 350 76 46 206 101 564 464 320 398 321 390 335 688 715 821 784 786 550 433 692 534 414 353 611 312 239 236 223 244 193 257 314 459 510 564 654 698 639 704 736 721 656 568 490 526 568 674 656 622 830 952 930 959 1020 1033 1125 1164 1229 1236 1224 1208 1207 1302 1361 1426 1468 1381
4 31 27 25 0 0 0 0 0 0 0 20 8 18 10 0 17 8 344 66 440 173 171 134 312 238 248 424 293 403 457 482 815 852 764 813 671 640 410 488 512 534 321 345 316 269 252 210 136 152 220 333 445 582 595 589 731 721 724 737 743 697 559 553 575 659 723 739 801 846 868 946 930 977 1011 1080 1128 1186 1197 1214 1228 1306 1354 1403 1423 1399 1491
0 6 20 49 49 13 14 1 12 6 44 0 2 0 0 0 0 0 4 85 519 170 193 224 442 512 368 268 208 381 707 456 726 820 986 783 549 450 606 702 704 352 424 342 288 224 265 161 124 196 353 384 413 549 607 678 704 684 746 828 662 622 590 655 614 694 748 726 770 779 867 880 918 940 1010 951 996 1126 1148 1130 1188 1263 1245 1354 1370 1445 1532
10 206 35 13 31 4 0 0 2 3 14 27 11 13 2 0 104 134 12 31 285 175 448 395 455 302 406 261 260 610 668 497 933 806 636 746 855 572 611 523 533 432 339 375 148 164 190 133 152 220 283 316 426 492 584 593 723 750 850 742 635 580 574 606 648 652 676 696 724 754 785 846 847 872 872 943 1020 1078 1071 1014 1087 1037 1074 1200 1302 1420 1378
26 3 9 8 19 6 0 20 8 39 10 9 28 0 0 20 0 2 62 355 361 488 375 316 279 272 238 274 304 660 763 1068 900 827 673 608 664 878 545 468 520 425 308 243 208 123 112 112 163 103 178 380 522 454 642 526 651 693 674 626 564 547 596 575 576 638 628 689 662 678 727 752 775 756 841 903 975 1025 1004 942 993 1117 1195 1224 1270 1266 1243
65 1 0 4 7 15 115 296 63 26 24 0 57 40 13 62 14 414 180 556 517 332 248 273 194 212 291 340 335 488 826 860 995 947 748 311 450 460 406 466 416 334 390 216 74 58 48 106 49 27 209 272 362 428 554 542 577 716 690 637 584 534 520 565 601 591 598 598 603 629 700 713 729 769 811 864 937 1005 1037 1023 999 1082 1147 1298 1217 1293 1274
0 0 2 10 9 138 154 58 35 17 34 2 2 0 0 0 7 28 94 184 323 312 97 120 139 273 310 286 301 434 494 633 877 950 708 572 303 545 490 472 324 420 339 132 189 26 54 50 40 244 217 338 340 484 472 626 660 718 541 569 523 490 457 522 550 513 514 530 566 605 601 649 677 744 827 880 955 995 992 980 1016 1056 1191 1184 1246 1287 1350
17 6 23 1 17 316 505 118 95 51 33 22 1 0 0 0 11 124 121 208 355 338 234 299 306 538 265 270 447 384 405 490 572 732 469 602 454 552 286 398 410 386 272 142 30 49 77 43 99 85 146 234 330 456 522 555 602 546 535 518 486 510 515 548 506 476 488 504 532 539 572 606 685 725 814 925 947 954 977 949 1056 1147 1144 1184 1195 1229 1294
87 155 103 118 472 58 192 368 179 200 126 112 132 64 147 0 105 155 110 357 270 258 339 440 383 458 216 272 338 263 462 448 580 417 279 659 592 344 321 124 198 269 219 123 115 106 106 97 92 235 228 247 328 431 517 494 670 682 564 484 486 569 474 473 437 446 498 529 518 499 527 565 624 714 786 888 874 931 924 913 1006 1023 1107 1096 1141 1225 1238
88 100 67 609 170 89 508 86 255 128 116 70 58 86 112 17 87 36 350 493 273 318 322 647 686 382 235 188 374 561 529 392 348 246 499 446 411 326 208 196 119 176 126 92 80 111 65 156 264 310 232 351 470 452 551 573 598 698 507 481 502 508 474 462 453 470 517 530 496 476 481 524 602 688 756 784 876 924 898 922 967 1032 1098 1121 1205 1372 1394
108 43 17 131 9 244 333 188 38 54 75 47 32 5 14 591 558 269 299 300 286 513 468 678 546 219 180 498 484 457 445 314 233 250 271 243 171 165 94 167 147 34 58 108 149 105 175 148 339 258 217 238 340 410 516 476 476 567 674 573 562 498 453 479 466 468 464 451 465 457 462 524 604 660 716 761 822 930 998 988 971 1008 845 840 1001 1108 1182
72 94 114 130 147 732 832 415 133 126 84 102 10 7 190 430 288 213 263 419 244 524 716 654 370 349 293 744 601 443 313 301 199 213 109 77 16 28 26 0 23 71 95 51 81 111 106 157 80 105 90 238 330 466 442 433 510 444 535 624 532 502 504 469 420 447 407 426 438 472 493 523 592 688 734 758 808 853 955 949 1065 974 1100 959 1048 1109 1139
42 42 73 8 690 720 439 388 128 141 57 38 1 100 312 558 387 223 83 307 148 449 580 264 453 526 575 450 353 286 250 208 136 66 10 0 0 0 0 6 36 0 8 45 46 39 83 278 108 104 133 136 274 457 579 587 481 490 555 599 612 580 550 442 430 372 370 384 445 450 478 521 594 700 768 758 760 814 872 1035 1180 1155 1264 1179 1089 1154 1268
27 31 20 7 349 444 198 171 59 37 37 13 30 768 839 575 319 201 244 364 401 399 580 322 446 330 148 125 39 19 16 8 0 0 0 0 0 0 7 39 26 10 19 40 156 104 127 82 134 164 173 242 462 491 452 365 355 290 552 460 492 452 476 426 349 370 378 416 384 339 362 480 541 524 518 644 697 720 947 1151 1296 1160 1018 1257 1232 1228 1184
256 543 298 273 126 560 394 120 82 62 587 727 749 878 550 456 418 501 355 381 346 372 369 497 520 326 207 152 44 1 0 0 0 0 0 0 0 0 0 0 0 42 150 155 178 116 56 140 258 214 179 313 422 491 493 322 274 313 377 500 475 424 386 340 346 314 324 340 330 263 314 410 451 467 538 673 782 824 912 1117 1161 1096 1214 1233 1158 1121 1093
252 115 326 390 340 84 215 516 541 970 944 733 753 620 539 481 555 451 377 371 321 317 366 253 146 73 17 0 0 0 0 0 0 0 0 0 0 0 0 0 10 111 160 136 73 14 24 202 362 347 327 322 414 388 399 518 327 321 349 300 292 278 229 236 256 233 238 248 242 274 319 372 428 520 625 625 648 744 924 1109 1204 1177 1256 1132 1067 1021 1042
673 680 475 1022 574 239 226 495 840 626 477 579 226 404 469 678 588 667 421 410 355 321 199 145 86 24 14 19 0 3 0 0 0 0 0 0 0 0 2 4 41 130 141 52 51 38 72 126 243 405 284 349 278 316 402 488 550 376 273 192 208 184 194 198 153 145 145 162 190 170 233 290 302 312 326 482 646 716 772 885 1085 1121 981 1024 1203 1234 1050
596 672 970 143 338 202 180 89 216 126 102 23 55 298 656 493 578 552 384 309 190 112 64 4 8 16 0 0 0 0 0 0 0 0 0 0 0 0 3 26 102 44 36 58 54 98 147 199 239 376 279 213 301 353 322 500 457 323 316 313 302 353 176 103 52 28 44 29 12 46 58 90 185 332 436 356 288 429 583 624 729 959 1026 828 893 1087 1144
371 409 557 652 247 84 242 153 180 134 90 300 233 590 610 639 490 316 160 72 5 2 33 25 4 0 0 0 0 0 0 0 0 0 0 0 8 14 10 55 153 156 110 127 181 205 221 260 278 241 260 381 453 483 558 272 165 315 203 236 251 213 129 6 4 49 11 6 2 1 2 5 8 15 70 140 198 364 460 482 510 635 712 741 764 756 1010
746 1133 612 371 135 178 265 222 76 235 446 616 478 541 504 442 293 134 26 1 0 0 2 0 0 0 0 0 0 0 0 0 0 0 0 11 48 97 121 146 188 238 261 243 248 262 328 339 341 346 390 445 396 422 305 312 208 212 199 148 55 4 0 0 33 50 40 11 8 2 0 0 4 22 84 138 143 216 221 217 299 319 339 400 299 417 433
562 622 550 480 302 208 194 167 173 200 226 378 334 246 210 106 17 1 0 0 0 0 0 6 0 0 0 0 0 0 0 0 0 3 16 52 54 154 182 220 222 298 311 338 376 318 347 372 397 438 437 418 316 311 279 228 372 158 94 114 62 6 8 8 76 62 6 2 4 4 8 35 64 153 193 122 218 201 156 237 269 185 161 167 292 240 280
668 662 688 532 174 321 152 303 93 97 245 238 174 98 36 14 4 10 0 0 6 3 0 0 0 1 0 0 0 0 0 2 12 3 99 154 132 180 235 235 245 285 318 350 351 393 433 441 429 482 494 448 451 327 348 255 278 256 221 93 40 7 0 4 19 9 4 2 6 8 6 9 10 32 70 16 32 63 60 82 33 0 24 99 197 238 308
577 750 595 1185 990 515 778 405 217 316 241 165 64 48 51 10 19 0 0 0 0 6 0 0 0 8 6 0 0 0 0 10 1 62 184 288 255 255 324 342 389 362 350 328 326 367 415 532 487 422 417 358 440 292 272 294 240 296 234 187 62 28 10 7 27 16 3 3 6 18 33 16 64 88 85 122 16 0 0 0 0 0 0 0 0 40 314
308 251 672 735 804 728 595 245 233 214 206 100 61 89 90 54 26 12 0 12 3 3 0 0 0 0 0 0 0 0 0 0 427 319 260 222 260 284 337 338 330 270 291 356 358 378 395 388 365 441 290 397 363 119 180 408 360 298 263 269 165 70 32 10 31 46 8 41 69 81 118 159 161 157 143 130 187 121 0 0 0 0 0 0 0 0 328
1273 323 449 505 536 352 292 226 131 175 152 80 72 132 143 89 45 14 66 20 57 9 0 0 0 0 0 0 0 0 0 0 204 168 92 184 216 288 253 190 216 259 371 340 344 347 352 339 338 275 338 318 256 98 284 300 254 220 240 239 114 54 43 57 62 119 46 110 188 177 112 136 141 175 169 162 160 231 277 77 0 0 0 0 167 384 464
318 285 337 231 144 209 284 140 166 175 80 72 233 209 176 142 32 30 34 30 61 0 0 0 0 0 0 0 0 0 9 114 122 94 178 218 178 186 190 144 199 347 388 336 282 325 314 316 325 214 207 60 87 128 145 276 194 180 200 178 152 130 126 94 163 212 156 144 104 145 187 241 230 223 210 210 227 265 281 203 296 222 105 307 364 450 576
590 306 147 114 178 305 160 184 275 180 87 130 225 250 164 52 0 0 24 2 0 3 2 0 0 1 0 0 0 4 56 62 99 196 145 174 183 214 212 210 288 349 286 251 371 424 308 351 273 213 213 126 194 186 233 301 248 196 141 177 64 23 8 64 130 76 56 78 89 157 177 227 238 202 202 258 230 210 338 324 310 224 391 512 449 369 409
328 138 124 145 338 149 186 316 225 162 143 182 222 187 138 39 0 0 0 0 0 1 0 0 0 0 0 0 0 40 72 175 164 141 189 274 320 344 327 347 367 258 229 274 318 278 248 325 210 146 127 196 231 210 155 121 74 28 24 16 5 4 26 61 60 104 111 174 207 241 258 261 221 189 148 178 156 293 259 94 65 50 29 332 642 490 439
256 104 102 260 391 453 346 315 226 136 152 237 160 182 45 6 0 0 33 3 4 8 18 2 5 6 0 0 29 171 196 180 188 216 272 368 404 439 468 411 380 278 314 281 295 378 382 320 237 167 182 200 208 179 24 0 3 2 5 2 3 6 8 52 68 64 66 103 167 241 177 160 167 165 230 269 423 407 234 148 365 167 441 415 346 480 496
359 410 213 424 282 284 368 276 215 150 152 158 45 48 64 0 2 126 21 75 2 1 0 0 5 4 0 0 101 189 202 199 246 291 361 391 426 464 494 470 533 498 430 276 519 446 339 277 209 178 167 160 96 51 0 2 2 2 7 14 7 2 12 48 64 54 68 90 91 146 210 232 243 276 62 354 403 430 485 387 194 360 343 444 497 453 405
390 412 369 491 327 274 260 314 297 155 188 139 77 52 52 1 12 62 166 161 106 34 22 11 3 0 21 68 175 180 204 272 330 353 348 386 405 456 560 560 546 551 577 678 632 409 322 200 124 189 246 160 0 0 0 0 0 2 3 3 0 3 5 12 14 37 34 68 124 169 186 193 200 210 305 390 212 249 225 138 302 276 272 449 426 304 416
120 187 341 349 214 164 254 404 280 160 166 90 30 85 118 94 9 56 39 17 16 3 14 1 1 74 143 244 214 232 278 300 341 328 282 238 456 458 541 549 483 485 686 779 664 371 226 131 134 160 180 44 0 0 0 0 0 1 1 0 0 1 7 8 10 25 49 122 146 131 162 150 123 131 130 153 223 221 204 236 214 304 354 346 459 308 327
272 200 244 230 209 314 274 134 163 204 66 60 196 226 264 156 178 131 130 92 2 5 2 0 149 196 239 253 284 280 295 295 284 211 216 336 420 532 603 535 475 554 564 764 598 238 124 110 122 102 4 0 0 0 0 0 0 0 0 0 2 7 12 9 10 19 64 110 114 120 99 68 49 36 47 116 134 108 145 125 91 189 246 424 550 693 632
393 390 425 261 265 410 262 254 178 164 108 97 184 186 105 73 54 80 85 75 0 0 7 202 294 345 295 297 282 231 206 237 250 315 382 526 501 511 556 580 565 630 514 375 133 129 154 79 78 0 0 2 1 0 1 1 0 0 0 1 9 11 8 12 30 50 62 120 84 102 36 37 11 25 20 29 44 105 54 33 32 22 18 15 20 19 1
394 352 279 123 211 219 176 146 155 120 38 126 56 45 100 75 50 42 37 7 63 265 428 383 344 207 248 243 247 212 212 261 288 366 438 456 413 476 548 593 604 576 568 230 311 243 134 23 0 4 9 38 0 0 0 0 0 0 0 5 15 14 12 20 17 23 26 19 10 7 8 8 15 18 18 24 24 24 16 14 13 12 11 8 6 6 5
398 360 258 274 285 159 111 158 124 57 85 105 214 134 95 40 41 20 0 0 0 89 302 271 235 203 286 271 274 289 334 387 355 346 331 361 410 570 596 589 480 440 412 131 306 112 56 40 0 20 59 163 0 0 13 0 0 0 7 12 13 6 7 8 8 6 10 11 8 10 8 17 18 9 11 15 8 8 8 8 10 11 8 4 5 5 6
371 626 439 571 336 285 321 402 241 204 223 222 204 166 55 6 0 8 2 31 122 184 261 212 210 245 266 292 326 654 896 635 482 395 360 419 565 550 692 820 572 352 238 245 356 26 18 4 4 40 49 0 2 0 38 0 0 0 17 14 3 3 8 8 6 6 8 12 10 9 12 9 4 1 6 5 5 6 8 8 12 13 9 6 6 6 8
551 655 579 686 725 412 290 242 261 286 143 112 64 19 50 12 24 18 18 26 44 158 310 268 280 353 340 334 754 535 470 583 351 272 306 450 529 555 780 717 601 480 344 558 258 26 20 31 30 95 2 0 0 0 0 0 0 0 8 6 2 1 1 3 2 4 4 4 10 4 5 6 6 2 4 4 4 6 10 11 12 14 9 7 8 6 12
685 595 549 441 314 215 88 46 41 72 31 2 8 7 34 17 34 24 62 28 99 166 224 298 346 381 381 381 437 429 465 696 470 320 330 409 550 837 1065 443 291 280 425 258 92 121 156 150 53 54 4 0 0 0 0 0 0 3 4 0 0 7 5 3 2 4 7 8 9 4 4 2 4 5 4 5 2 4 19 22 12 14 6 4 6 8 9
578 484 397 267 200 218 218 201 186 200 112 65 86 72 10 6 4 25 66 23 58 171 240 356 354 344 304 253 490 444 350 349 497 602 814 620 772 823 514 217 321 388 417 172 221 174 82 44 8 5 0 0 0 0 0 0 0 3 4 0 0 6 2 4 2 6 8 11 12 9 6 7 8 7 7 18 2 5 27 32 25 12 7 7 5 5 9
482 455 350 384 303 206 175 151 94 64 58 3 38 154 13 4 30 0 4 12 59 53 260 233 270 234 238 288 316 316 316 252 343 700 1054 810 898 604 453 215 336 373 268 82 241 219 100 16 5 0 0 0 0 0 0 0 1 3 8 0 1 4 2 0 2 6 10 12 9 9 9 8 11 6 4 6 12 6 28 36 36 24 20 7 6 6 5
456 415 415 342 361 385 287 227 247 506 56 28 17 22 19 19 21 11 6 1 1 7 69 163 134 152 193 314 436 440 450 552 669 764 1130 1092 1090 1013 653 518 424 498 96 174 256 42 34 8 0 0 0 0 0 0 0 4 12 11 2 0 0 3 4 1 0 2 11 11 10 11 15 14 15 10 3 4 4 8 22 33 34 46 34 19 4 3 5
457 463 417 406 504 377 250 202 222 120 94 184 72 87 89 58 6 20 14 49 4 3 19 94 174 129 220 378 478 857 1167 944 652 712 967 770 788 612 445 844 886 546 158 381 66 16 0 0 0 0 0 0 0 0 5 5 10 7 0 0 0 2 2 0 1 0 0 3 5 5 6 8 7 5 2 2 4 19 25 34 45 46 40 30 18 7 6
500 462 449 501 478 397 343 236 124 91 30 31 61 96 30 15 25 81 91 120 64 84 36 50 88 130 133 220 305 462 903 1029 1066 830 326 438 463 727 781 911 518 252 180 56 7 1 0 0 0 0 0 0 0 5 1 9 4 3 1 0 0 0 0 1 0 0 0 3 0 1 2 4 4 5 3 0 12 22 21 30 40 54 52 52 47 21 5
528 509 486 320 347 374 320 240 206 107 128 136 38 21 86 14 25 28 74 155 320 308 118 77 86 100 138 181 372 537 1056 1111 1122 894 354 541 421 662 695 529 187 129 172 40 27 25 0 0 0 0 0 0 0 0 0 2 0 1 2 0 0 0 0 0 0 3 2 0 3 0 0 0 0 1 2 0 6 15 20 23 29 46 54 57 51 28 17
426 422 428 391 422 372 370 301 272 131 108 24 28 164 31 64 154 142 36 60 130 204 116 152 140 124 94 103 205 327 434 932 1112 967 954 645 473 816 808 522 470 345 134 125 142 0 0 0 0 0 0 0 0 0 0 0 0 0 0 0 0 0 0 0 2 4 1 0 0 1 0 0 0 0 1 6 5 14 18 26 36 40 50 66 62 56 35
374 366 480 436 444 503 316 288 196 125 101 67 18 14 75 41 39 148 117 46 106 104 132 149 122 106 118 169 348 588 455 541 827 987 1092 1118 792 658 554 496 306 169 122 47 8 0 0 0 0 0 0 0 0 0 0 0 0 0 0 0 0 0 2 4 8 11 1 2 2 0 0 0 1 0 0 0 3 6 9 17 24 29 37 56 64 53 37
264 331 368 410 498 420 499 361 219 81 49 378 4 26 4 12 30 76 22 30 60 114 56 104 410 335 359 237 208 405 924 1152 528 498 259 149 292 528 715 711 158 64 19 80 40 4 0 0 0 2 1 0 1 0 0 0 0 0 0 0 0 0 0 0 2 2 12 16 10 4 2 3 4 2 1 0 0 1 7 4 6 8 20 22 28 38 36
425 537 548 502 771 655 493 426 293 165 45 60 72 250 1 1 3 1 0 8 19 12 11 164 384 490 460 311 144 143 744 1199 1124 721 541 328 536 319 517 384 268 320 193 41 266 1 3 2 0 0 0 0 0 0 0 0 0 0 0 0 0 0 0 0 0 2 7 9 6 4 2 1 0 0 0 0 0 0 3 3 2 1 0 3 9 14 20
421 686 926 916 596 552 508 404 211 242 224 180 210 80 18 12 0 6 20 8 25 32 9 6 53 412 406 63 102 683 1308 1012 1148 1174 730 398 461 698 467 220 482 183 123 3 8 26 7 0 0 5 0 0 0 0 0 0 0 0 0 0 0 0 0 0 0 0 0 0 0 0 0 0 0 0 0 0 0 0 0 3 1 0 0 3 10 8 4
882 828 678 793 290 460 328 407 195 168 143 73 42 38 292 8 8 8 14 17 14 11 10 7 17 32 14 9 336 620 948 1187 686 732 690 334 357 294 512 313 367 263 58 0 2 1 44 11 30 12 0 0 0 0 0 0 0 0 0 0 0 0 0 0 0 0 0 0 0 0 0 0 0 0 0 0 0 0 0 0 0 0 2 4 2 2 5
365 288 492 132 63 107 146 37 31 156 29 26 23 0 0 0 0 2 12 16 22 12 7 10 5 10 3 11 21 129 749 612 304 642 586 450 330 183 373 342 270 178 119 74 44 222 3 0 0 0 0 0 0 0 0 0 0 0 0 0 0 0 0 0 0 0 0 0 0 0 0 0 0 0 0 0 0 0 0 0 0 1 4 6 4 8 9
Wind_Speed
nan nan nan nan nan nan nan nan nan nan nan nan nan nan nan nan nan 20 27 24 25 nan nan 19 17 22 17 18 18 17 19 20 19 21 23 22 20 21 20 19 20 20 21 24 23 20 22 22 22 23 24 25 25 26 26 26 27 27 27 27 28 27 27 26 26 26 26 27 28 28 27 26 26 26 26 26 25 25 26 24 22 18 17 18 19 21 22
nan nan nan nan nan nan nan nan nan nan nan nan nan nan nan nan nan nan 23 nan 33 29 27 25 19 18 15 21 19 20 20 21 20 22 21 20 20 20 19 20 21 20 19 24 21 22 22 23 24 24 25 26 26 26 26 27 27 27 28 28 28 27 27 26 26 26 26 27 28 28 27 26 26 25 25 25 25 24 23 22 20 19 20 20 21 22 24
nan nan nan nan nan nan nan nan nan nan nan nan nan nan nan nan nan nan nan nan 34 26 26 28 23 21 23 23 21 23 22 22 22 22 22 19 20 20 16 23 22 22 25 24 22 24 23 26 25 26 26 27 27 27 27 28 28 28 28 28 29 28 27 26 25 25 26 27 28 27 28 27 26 25 25 24 24 24 22 20 19 21 22 22 23 24 24
nan 22 nan nan nan nan nan nan nan nan nan nan nan nan nan nan 19 14 nan nan 31 30 28 29 25 24 23 24 23 25 25 23 23 22 23 21 19 22 21 27 26 27 26 25 23 24 26 28 26 27 28 28 28 28 28 29 29 29 29 29 29 29 29 28 26 25 26 26 27 27 27 27 26 26 25 24 24 23 22 20 20 21 22 23 23 24 24
nan nan nan nan nan nan nan nan nan nan nan nan nan nan nan nan nan nan nan 30 32 33 31 29 25 25 23 25 24 28 26 26 25 23 23 23 21 22 24 28 30 27 24 25 26 26 29 28 29 29 29 29 29 30 29 30 30 30 30 31 31 30 29 28 27 27 27 26 27 27 27 26 26 25 25 25 24 24 22 21 21 21 22 22 24 24 24
nan nan nan nan nan nan 16 15 nan nan nan nan nan nan nan nan nan 27 31 34 33 32 31 30 25 23 24 23 26 26 26 26 27 27 23 24 27 24 28 30 29 29 29 28 nan nan nan 31 nan nan 30 30 31 31 30 31 31 31 32 32 31 30 30 30 29 27 27 27 27 27 27 26 26 25 25 25 25 25 24 23 22 22 21 21 23 25 26
nan nan nan nan nan 15 17 nan nan nan nan nan nan nan nan nan nan nan nan 36 28 26 nan 29 27 22 30 27 29 28 27 28 27 27 26 23 27 33 34 30 31 30 35 32 30 nan nan nan nan 31 32 32 33 31 32 31 32 32 33 32 32 31 31 31 30 29 28 28 28 27 27 27 26 26 26 26 25 25 25 24 24 23 23 22 22 24 25
nan nan nan nan nan 28 23 27 nan nan nan nan nan nan nan nan nan 29 22 34 31 25 29 35 32 29 31 28 28 29 29 28 29 27 26 28 31 33 31 33 32 31 32 33 nan nan nan nan nan nan 32 33 33 33 33 32 33 33 33 33 32 32 31 31 30 30 29 28 28 28 27 27 26 26 26 26 26 26 26 26 26 25 24 24 23 23 24
nan 15 12 19 26 nan 24 23 16 12 15 17 19 nan 17 nan 19 30 33 36 31 31 34 33 32 32 30 28 28 25 30 32 30 28 26 33 32 33 30 30 34 37 34 32 32 34 32 nan nan 32 33 33 33 33 33 33 33 32 33 32 32 32 33 31 30 30 29 29 29 28 27 27 26 26 26 26 27 28 26 26 26 26 25 24 25 24 23
nan nan nan 23 26 nan 15 nan 15 17 14 nan nan nan 12 nan nan nan 33 29 28 33 34 31 31 30 29 27 30 31 34 32 31 30 37 38 35 32 34 38 37 36 35 nan nan 34 nan 30 32 33 33 33 33 34 34 34 33 31 30 32 32 33 32 31 30 30 29 30 29 28 28 27 26 27 27 28 27 28 27 26 26 26 26 26 26 26 26
19 nan nan 20 nan 26 17 14 nan nan nan nan nan nan nan 27 23 28 28 30 28 29 32 32 28 27 26 30 36 35 33 31 29 34 35 31 30 32 nan 36 34 nan nan 35 34 32 31 30 33 34 32 32 33 33 33 34 33 31 28 30 34 33 33 32 31 30 30 30 29 28 28 27 27 27 28 28 28 28 29 28 26 26 26 26 26 27 28
nan nan 19 18 25 32 29 29 20 17 nan 15 nan nan 21 27 28 27 28 32 29 26 31 30 25 23 25 37 35 37 35 31 32 30 33 nan nan nan nan nan nan nan nan nan nan 32 32 31 nan 31 nan 33 32 33 33 32 31 30 30 30 31 32 32 31 31 30 31 30 30 29 28 27 27 28 29 29 28 27 28 28 27 27 27 26 26 26 27
nan nan nan nan 33 33 29 27 23 22 nan nan nan nan 26 23 24 29 nan 31 32 28 30 27 27 33 32 35 37 34 39 35 38 nan nan nan nan nan nan nan nan nan nan nan nan nan nan 33 32 33 33 32 31 32 31 31 31 30 31 32 30 31 32 31 31 31 31 31 29 29 30 29 28 28 29 29 28 28 27 28 27 27 27 27 27 27 28
nan nan nan nan 32 35 32 28 nan nan nan nan nan 25 23 26 28 27 29 36 33 33 28 33 35 34 37 39 nan nan nan nan nan nan nan nan nan nan nan nan nan nan nan nan 35 33 34 nan 35 35 33 31 31 30 30 29 29 30 33 30 28 30 31 31 32 32 32 31 30 30 30 31 30 28 28 28 28 28 29 28 28 28 27 29 29 29 30
24 28 27 25 27 25 22 33 nan nan 17 22 23 24 27 27 28 29 33 32 32 29 35 35 33 36 34 36 nan nan nan nan nan nan nan nan nan nan nan nan nan nan 36 35 35 34 nan 35 38 35 32 30 30 29 29 28 29 30 30 29 29 31 32 32 32 32 31 30 31 31 31 30 29 28 28 28 28 29 29 29 28 27 29 30 30 29 29
29 28 28 29 29 nan 31 33 29 29 28 28 29 28 30 29 29 30 30 30 29 32 36 34 37 nan nan nan nan nan nan nan nan nan nan nan nan nan nan nan nan 39 38 36 nan nan nan 36 35 34 33 30 30 28 28 31 30 29 28 28 29 31 32 32 32 31 31 31 31 31 30 30 30 29 30 30 30 30 31 31 31 30 32 32 32 30 29
33 32 32 32 35 33 35 29 30 30 29 28 27 26 29 29 30 30 31 31 32 36 38 36 nan nan nan nan nan nan nan nan nan nan nan nan nan nan nan nan nan 35 34 nan nan nan nan 33 33 34 33 30 28 27 28 29 29 28 29 29 31 31 31 31 31 31 31 32 31 31 31 31 31 31 30 32 32 33 33 32 31 31 30 31 30 30 30
33 33 33 34 31 38 32 nan 27 26 25 nan nan 27 28 31 31 30 30 30 33 32 nan nan nan nan nan nan nan nan nan nan nan nan nan nan nan nan nan nan 35 nan nan nan nan nan 31 30 31 32 31 31 29 28 27 28 28 30 31 32 31 32 31 31 nan nan nan nan nan nan nan nan 32 34 35 35 33 32 32 31 31 31 30 29 28 28 28
29 32 35 40 41 nan 34 31 30 28 nan 35 33 31 29 31 33 33 32 nan nan nan nan nan nan nan nan nan nan nan nan nan nan nan nan nan nan nan nan nan 33 33 33 31 31 30 28 29 28 28 29 31 29 29 29 29 29 32 32 31 32 33 32 nan nan nan nan nan nan nan nan nan nan nan nan 33 32 32 31 30 30 29 28 28 28 27 27
33 32 26 32 35 36 36 32 nan 35 37 35 32 30 31 32 32 33 nan nan nan nan nan nan nan nan nan nan nan nan nan nan nan nan nan nan nan nan 33 32 32 32 31 29 28 28 28 28 27 27 28 28 28 29 30 31 32 32 32 32 nan nan nan nan nan nan nan nan nan nan nan nan nan nan nan 30 29 29 28 28 28 27 26 24 24 25 24
30 29 32 32 34 31 28 31 38 36 32 32 32 32 32 31 nan nan nan nan nan nan nan nan nan nan nan nan nan nan nan nan nan nan nan nan nan 32 31 32 31 30 29 27 26 25 26 26 26 26 26 27 28 29 31 32 34 33 nan 31 nan nan nan nan nan nan nan nan nan nan nan nan nan 30 29 28 27 25 25 28 27 25 22 19 19 21 21
25 24 26 27 28 28 28 33 nan nan 30 33 33 nan nan nan nan nan nan nan nan nan nan nan nan nan nan nan nan nan nan nan nan nan nan 33 31 30 30 29 29 27 26 25 24 24 24 25 25 26 27 28 30 31 32 34 35 35 34 nan nan nan nan nan nan nan nan nan nan nan nan nan nan nan nan nan nan nan nan nan nan nan nan nan 19 20 18
20 20 21 28 27 25 21 29 33 29 30 30 nan nan nan nan nan nan nan nan nan nan nan nan nan nan nan nan nan nan nan nan nan nan 34 32 31 29 28 27 27 25 25 24 23 23 23 24 25 27 28 29 32 31 34 35 36 35 34 33 nan nan nan nan nan nan nan nan nan nan nan nan nan nan nan 24 nan nan nan nan nan nan nan nan nan nan 21
23 19 25 24 22 25 23 28 27 26 26 27 nan nan nan nan nan nan nan nan nan nan nan nan nan nan nan nan nan nan nan nan 36 34 32 30 29 28 26 26 25 23 23 23 22 22 23 24 26 28 28 31 32 31 33 36 37 35 33 34 34 nan nan nan nan nan nan nan nan nan 32 31 28 27 25 21 19 19 nan nan nan nan nan nan nan nan 16
27 26 20 20 24 24 22 24 22 25 24 nan nan 28 28 nan nan nan nan nan nan nan nan nan nan nan nan nan nan nan nan nan 33 30 nan 28 26 26 25 24 23 23 23 21 21 22 24 25 26 28 30 31 33 nan 35 35 34 33 33 34 33 nan nan nan nan 33 nan 33 33 32 29 27 25 25 23 21 17 16 18 nan nan nan nan nan 14 14 15
31 25 22 20 18 20 27 24 25 26 nan nan 30 30 27 27 nan nan nan nan nan nan nan nan nan nan nan nan nan nan nan 29 30 nan 27 26 25 24 23 23 23 22 21 21 23 24 24 25 27 28 29 nan nan 34 34 33 32 32 33 33 33 34 35 nan 33 33 32 30 28 26 26 24 23 22 20 19 18 17 16 17 17 18 17 17 14 12 13
28 26 22 20 19 25 23 20 26 24 nan 27 31 29 29 nan nan nan nan nan nan nan nan nan nan nan nan nan nan nan nan nan nan 27 26 24 23 23 22 22 21 20 19 22 25 25 25 27 28 30 32 33 34 33 32 31 31 32 32 32 nan nan nan nan 31 nan nan nan nan 22 21 21 20 19 18 18 16 15 16 14 14 15 17 18 18 20 18
26 16 17 18 23 24 21 27 29 25 27 29 30 26 28 nan nan nan nan nan nan nan nan nan nan nan nan nan nan nan nan 28 27 25 24 24 22 21 20 20 20 20 22 24 26 27 27 29 29 31 31 33 32 31 30 30 nan nan nan nan nan nan nan nan nan 25 24 23 22 22 21 20 18 17 16 15 14 15 16 nan nan nan nan 15 15 13 8
17 14 17 20 27 26 28 30 27 27 27 29 26 26 nan nan nan nan nan nan nan nan nan nan nan nan nan nan nan 32 30 27 25 24 22 21 20 19 18 19 20 21 24 25 27 28 29 30 31 32 32 31 30 30 nan nan nan nan nan nan nan nan nan nan nan nan nan 22 22 21 20 20 18 16 16 15 16 16 16 15 15 14 14 13 11 10 11
21 23 24 28 31 31 30 28 28 28 27 28 nan nan nan nan nan 33 nan nan nan nan nan nan nan nan nan nan 33 31 28 25 24 22 20 20 19 18 18 19 20 24 26 27 28 29 30 31 32 31 31 29 nan nan nan nan nan nan nan nan nan nan nan nan nan nan nan nan nan 18 19 20 19 18 nan 16 15 15 15 13 11 11 11 12 11 9 9
27 21 27 27 28 29 29 30 29 26 28 27 nan nan nan nan nan nan 32 31 27 nan nan nan nan nan nan nan 29 28 25 23 21 20 19 19 18 18 19 21 23 25 26 26 28 29 30 30 30 31 30 28 nan nan nan nan nan nan nan nan nan nan nan nan nan nan nan nan 22 22 21 20 20 18 16 15 14 14 11 10 10 11 11 11 11 10 10
29 25 27 26 26 29 33 30 27 28 30 nan nan nan 27 nan nan nan nan nan nan nan nan nan nan nan 31 30 27 24 22 21 20 19 18 18 18 20 21 23 24 25 26 27 28 29 29 30 29 30 29 nan nan nan nan nan nan nan nan nan nan nan nan nan nan nan nan 24 24 23 22 21 19 17 16 15 13 11 10 9 9 9 11 10 9 8 9
28 28 29 29 30 32 32 29 28 32 nan nan 29 29 28 27 26 26 29 nan nan nan nan nan 30 30 28 26 24 22 20 20 18 18 18 19 19 20 22 24 26 26 27 29 28 29 29 29 29 28 nan nan nan nan nan nan nan nan nan nan nan nan nan nan nan nan nan 21 23 23 nan nan nan nan nan 13 11 9 9 9 nan 9 9 9 10 11 10
28 30 32 30 29 30 30 31 32 30 29 nan 31 27 25 nan nan nan nan nan nan nan nan 30 29 27 26 23 22 20 19 18 19 19 18 19 20 21 23 25 26 27 28 27 27 30 28 nan nan nan nan nan nan nan nan nan nan nan nan nan nan nan nan nan nan nan nan 22 nan 19 nan nan nan nan nan nan nan 9 nan nan nan nan nan nan nan nan nan
30 31 30 31 32 30 30 31 30 29 nan 29 nan nan 30 nan nan nan nan nan nan 29 30 28 26 23 21 22 20 18 18 18 18 18 19 20 21 22 24 25 26 27 27 27 29 29 28 nan nan nan nan nan nan nan nan nan nan nan nan nan nan nan nan nan nan nan nan nan nan nan nan nan nan nan nan nan nan nan nan nan nan nan nan nan nan nan nan
30 30 30 31 31 32 30 30 32 nan nan 30 33 33 nan nan nan nan nan nan nan nan 29 27 23 20 19 20 18 17 17 18 19 19 20 21 22 23 25 25 25 26 26 27 30 26 nan nan nan nan nan 25 nan nan nan nan nan nan nan nan nan nan nan nan nan nan nan nan nan nan nan nan nan nan nan nan nan nan nan nan nan nan nan nan nan nan nan
29 30 31 32 32 34 36 34 33 32 32 32 31 31 nan nan nan nan nan nan 29 27 26 23 21 18 17 19 16 16 16 18 20 21 21 22 23 24 24 25 26 27 26 27 26 nan nan nan nan nan nan nan nan nan nan nan nan nan nan nan nan nan nan nan nan nan nan nan nan nan nan nan nan nan nan nan nan nan nan nan nan nan nan nan nan nan nan
30 31 33 34 35 37 35 35 35 33 31 31 nan nan nan nan nan nan nan nan nan 22 23 19 17 18 16 15 15 15 16 18 19 21 21 22 24 23 24 25 25 25 26 26 23 nan nan nan nan nan nan nan nan nan nan nan nan nan nan nan nan nan nan nan nan nan nan nan nan nan nan nan nan nan nan nan nan nan nan nan nan nan nan nan nan nan nan
30 31 32 34 34 34 nan nan nan nan nan nan nan nan nan nan nan nan nan nan nan 19 18 18 17 15 14 14 15 16 17 18 20 21 22 23 24 23 23 24 26 26 26 23 nan 24 25 24 nan nan nan nan nan nan nan nan nan nan nan nan nan nan nan nan nan nan nan nan nan nan nan nan nan nan nan nan nan nan nan nan nan nan nan nan nan nan nan
28 29 31 32 32 32 32 32 30 30 28 nan nan nan nan nan nan nan nan nan nan 20 18 16 15 14 14 14 15 16 17 18 20 21 22 23 23 24 23 26 27 26 25 20 22 23 nan nan nan nan nan nan nan nan nan nan nan nan nan nan nan nan nan nan nan nan nan nan nan nan nan nan nan nan nan nan nan nan nan nan nan nan nan nan nan nan nan
27 27 28 30 30 29 30 30 nan nan nan nan nan 26 nan nan nan nan nan nan nan nan 17 16 14 14 14 14 15 16 18 18 20 22 23 22 22 23 23 25 23 24 23 nan 22 22 21 nan nan nan nan nan nan nan nan nan nan nan nan nan nan nan nan nan nan nan nan nan nan nan nan nan nan nan nan nan nan nan nan nan nan nan nan nan nan nan nan
25 26 27 27 26 27 26 23 21 25 nan nan nan nan nan nan nan nan nan nan nan nan nan 14 14 13 13 14 15 16 18 20 21 21 21 21 22 24 22 25 23 24 nan 20 20 nan nan nan nan nan nan nan nan nan nan nan nan nan nan nan nan nan nan nan nan nan nan nan nan nan nan nan nan nan nan nan nan nan nan nan nan nan nan nan nan nan nan
23 24 24 23 23 24 23 21 20 24 nan 19 nan nan nan nan nan nan nan nan nan nan nan nan 13 13 14 14 15 17 19 21 21 21 21 21 21 23 22 22 23 25 24 21 nan nan nan nan nan nan nan nan nan nan nan nan nan nan nan nan nan nan nan nan nan nan nan nan nan nan nan nan nan nan nan nan nan nan nan nan nan nan nan nan nan nan nan
21 22 22 22 22 22 21 22 20 nan nan nan nan nan nan nan nan nan nan 13 nan nan nan nan nan 13 13 15 16 17 19 21 22 22 22 20 23 22 21 22 20 24 27 nan nan nan nan nan nan nan nan nan nan nan nan nan nan nan nan nan nan nan nan nan nan nan nan nan nan nan nan nan nan nan nan nan nan nan nan nan nan nan nan nan nan nan nan
20 20 21 21 20 19 20 18 18 16 16 17 nan nan nan nan nan nan nan 11 11 11 11 nan nan 13 14 16 17 17 18 19 21 23 21 21 19 23 23 19 19 20 23 nan nan nan nan nan nan nan nan nan nan nan nan nan nan nan nan nan nan nan nan nan nan nan nan nan nan nan nan nan nan nan nan nan nan nan nan nan nan nan nan nan nan nan nan
20 19 20 20 19 18 17 18 16 15 17 nan nan 11 nan nan 12 12 nan nan 11 12 13 12 13 13 nan 16 17 17 18 19 20 25 25 23 20 21 22 23 22 22 21 21 19 nan nan nan nan nan nan nan nan nan nan nan nan nan nan nan nan nan nan nan nan nan nan nan nan nan nan nan nan nan nan nan nan nan nan nan nan nan nan nan nan nan nan
19 20 18 18 18 16 17 15 16 14 9 nan nan nan nan nan nan 11 11 nan 14 13 13 13 14 14 15 16 17 17 16 19 22 25 24 23 23 24 23 24 25 24 20 nan nan nan nan nan nan nan nan nan nan nan nan nan nan nan nan nan nan nan nan nan nan nan nan nan nan nan nan nan nan nan nan nan nan nan nan nan nan nan nan nan nan nan nan
16 16 15 16 14 15 15 15 12 nan nan 7 nan nan nan nan nan nan nan nan nan 14 nan 16 17 16 17 17 17 18 19 20 16 21 21 19 20 23 23 21 23 nan nan nan nan nan nan nan nan nan nan nan nan nan nan nan nan nan nan nan nan nan nan nan nan nan nan nan nan nan nan nan nan nan nan nan nan nan nan nan nan nan nan nan nan nan nan
14 15 14 11 14 14 13 10 9 9 nan nan nan 14 nan nan nan nan nan nan nan nan nan 16 16 18 19 20 18 17 19 24 21 19 19 17 18 18 24 25 25 23 18 nan 23 nan nan nan nan nan nan nan nan nan nan nan nan nan nan nan nan nan nan nan nan nan nan nan nan nan nan nan nan nan nan nan nan nan nan nan nan nan nan nan nan nan nan
12 12 13 12 12 11 10 9 10 8 11 10 12 nan nan nan nan nan nan nan nan nan nan nan nan 22 21 nan 20 20 19 18 19 18 16 18 18 19 19 20 23 19 18 nan nan nan nan nan nan nan nan nan nan nan nan nan nan nan nan nan nan nan nan nan nan nan nan nan nan nan nan nan nan nan nan nan nan nan nan nan nan nan nan nan nan nan nan
11 9 10 10 10 11 10 8 13 13 11 nan nan nan 11 nan nan nan nan nan nan nan nan nan nan nan nan nan 21 23 20 21 19 19 19 19 20 18 20 18 19 19 nan nan nan nan nan nan nan nan nan nan nan nan nan nan nan nan nan nan nan nan nan nan nan nan nan nan nan nan nan nan nan nan nan nan nan nan nan nan nan nan nan nan nan nan nan
7 7 11 10 nan 13 11 nan nan 7 nan nan nan nan nan nan nan nan nan nan nan nan nan nan nan nan nan nan nan 19 22 21 20 21 20 19 19 18 23 21 17 20 20 nan nan 14 nan nan nan nan nan nan nan nan nan nan nan nan nan nan nan nan nan nan nan nan nan nan nan nan nan nan nan nan nan nan nan nan nan nan nan nan nan nan nan nan nan
Wind_Direction
nan nan nan nan nan nan nan nan nan nan nan nan nan nan nan nan nan 277 296 308 308 nan nan 279 280 281 297 309 312 311 308 300 301 307 312 313 318 318 322 319 317 319 324 315 319 322 308 311 313 308 312 310 311 310 312 311 313 313 310 313 313 310 310 307 305 305 306 310 313 313 312 310 311 312 314 317 316 315 314 309 302 291 281 277 280 284 288
nan nan nan nan nan nan nan nan nan nan nan nan nan nan nan nan nan nan 300 nan 277 287 291 297 292 297 296 296 293 296 298 299 300 304 308 311 313 318 325 323 316 324 311 306 319 305 315 311 309 310 308 309 308 309 309 310 309 308 308 311 309 308 307 305 302 302 304 308 311 310 309 309 309 312 313 315 316 316 314 307 296 288 283 281 282 286 290
nan nan nan nan nan nan nan nan nan nan nan nan nan nan nan nan nan nan nan nan 271 267 280 290 293 289 285 292 294 295 295 301 302 306 304 312 313 312 315 301 318 305 304 308 313 315 314 307 309 310 310 310 309 309 307 306 306 306 309 309 306 306 305 304 302 301 302 304 307 310 309 309 308 307 310 313 316 317 316 308 294 282 278 279 281 285 289
nan 244 nan nan nan nan nan nan nan nan nan nan nan nan nan nan 273 271 nan nan 279 286 290 289 296 295 298 297 299 293 295 300 295 300 302 300 306 303 310 303 303 304 305 317 309 308 307 305 309 310 308 307 308 307 307 306 305 306 308 306 306 305 306 305 301 299 299 301 305 306 306 306 306 307 309 313 315 317 317 312 301 287 278 276 279 284 289
nan nan nan nan nan nan nan nan nan nan nan nan nan nan nan nan nan nan nan 260 279 279 283 287 290 299 298 296 296 291 295 293 295 297 296 297 299 302 298 296 301 310 306 301 310 308 304 306 308 308 306 309 308 305 308 307 307 310 308 306 305 305 305 304 301 300 299 301 302 303 303 304 305 306 308 311 313 315 315 312 308 299 289 282 279 280 285
nan nan nan nan nan nan 235 193 nan nan nan nan nan nan nan nan nan 266 265 274 277 285 289 294 298 299 295 288 282 284 290 293 295 293 294 296 300 297 291 290 294 298 309 305 nan nan nan 309 nan nan 308 308 306 307 309 309 310 310 308 305 305 305 304 303 300 298 298 297 299 300 301 303 305 306 308 307 308 311 312 313 310 305 300 293 287 283 282
nan nan nan nan nan 236 253 nan nan nan nan nan nan nan nan nan nan nan nan 279 281 285 nan 292 293 290 287 286 288 289 293 292 293 294 294 291 293 292 291 294 299 304 292 299 307 nan nan nan nan 306 304 305 306 309 309 309 309 308 304 304 304 303 304 304 302 299 297 297 299 300 300 303 305 308 308 306 305 306 308 310 309 307 303 298 296 290 284
nan nan nan nan nan 252 236 237 nan nan nan nan nan nan nan nan nan 261 263 275 274 278 278 281 287 283 281 283 286 289 293 292 291 295 294 293 290 294 297 297 301 296 293 288 nan nan nan nan nan nan 305 307 310 310 309 310 309 308 306 305 304 305 303 299 296 295 296 298 300 299 300 302 304 306 306 304 304 304 305 306 308 307 307 304 300 295 288
nan 224 245 252 245 nan 265 254 246 246 257 246 237 nan 230 nan 249 265 263 271 279 279 274 277 284 284 286 287 284 291 290 292 293 296 301 295 291 290 292 294 293 292 291 297 295 296 303 nan nan 304 306 307 310 310 309 307 307 306 303 302 302 300 297 295 295 295 297 299 300 300 300 301 303 303 303 303 304 303 303 303 304 305 305 303 301 301 296
nan nan nan 258 257 nan 250 nan 256 264 256 nan nan nan 235 nan nan nan 269 272 272 275 277 280 281 285 288 292 292 283 285 291 293 289 278 289 292 298 293 286 296 300 300 nan nan 297 nan 305 307 306 305 309 308 309 308 306 303 301 301 301 300 298 296 295 295 296 299 300 300 300 300 301 302 301 301 302 303 302 302 300 302 303 304 305 306 304 303
255 nan nan 248 nan 269 269 283 nan nan nan nan nan nan nan 253 250 273 275 281 272 274 283 284 286 287 292 284 282 286 286 284 287 292 300 305 303 295 nan 290 288 nan nan 298 300 304 305 307 304 303 305 304 306 304 300 299 299 298 298 295 295 294 295 294 294 296 298 298 299 300 301 302 301 300 300 301 301 302 302 301 301 301 301 303 304 305 305
nan nan 259 264 263 265 260 260 265 274 nan 268 nan nan 272 264 260 270 269 280 284 280 284 284 286 290 283 290 291 291 293 293 289 282 277 nan nan nan nan nan nan nan nan nan nan 303 303 301 nan 302 nan 301 300 298 297 297 297 296 295 292 292 294 294 294 296 299 300 300 301 302 302 302 303 303 302 301 300 299 299 299 299 298 298 300 301 301 302
nan nan nan nan 262 264 275 282 276 284 nan nan nan nan 268 272 276 275 nan 283 290 286 287 281 280 279 284 290 294 299 295 301 299 nan nan nan nan nan nan nan nan nan nan nan nan nan nan 300 300 298 297 297 297 296 296 298 293 295 296 292 292 292 293 295 297 298 299 300 300 301 302 303 303 301 300 300 299 299 298 298 299 300 300 299 299 299 298
nan nan nan nan 258 267 268 273 nan nan nan nan nan 268 267 269 274 276 282 281 284 289 288 286 286 281 276 278 nan nan nan nan nan nan nan nan nan nan nan nan nan nan nan nan 294 294 296 nan 295 295 294 295 296 294 294 292 291 293 291 293 296 296 297 299 300 302 301 301 302 303 303 302 301 299 299 299 299 299 298 297 299 298 296 296 295 296 296
236 238 235 230 246 248 254 263 nan nan 251 265 275 278 274 271 273 277 280 286 287 289 285 283 289 289 287 286 nan nan nan nan nan nan nan nan nan nan nan nan nan nan 292 293 294 293 nan 295 293 293 293 293 293 293 293 291 291 293 294 297 299 299 299 299 300 300 302 303 304 303 303 302 302 302 301 300 300 299 298 297 296 295 296 293 291 290 290
239 242 247 249 249 nan 257 251 254 255 258 272 277 276 274 276 278 278 282 280 282 283 286 287 281 nan nan nan nan nan nan nan nan nan nan nan nan nan nan nan nan 287 290 291 nan nan nan 292 293 293 293 294 294 293 293 292 293 295 297 298 299 298 298 299 300 302 303 302 302 302 302 303 304 304 302 300 300 298 297 296 295 295 294 291 290 289 287
246 253 251 249 250 250 255 258 262 261 268 274 267 265 273 278 280 280 281 282 279 277 280 280 nan nan nan nan nan nan nan nan nan nan nan nan nan nan nan nan nan 286 288 nan nan nan nan 290 291 292 293 295 293 292 293 294 297 299 299 299 298 299 301 303 303 303 303 302 301 301 303 303 303 302 303 302 300 298 296 294 293 292 289 287 287 287 286
255 259 253 249 252 256 255 nan 265 268 272 nan nan 275 275 275 281 282 284 285 283 285 nan nan nan nan nan nan nan nan nan nan nan nan nan nan nan nan nan nan 281 nan nan nan nan nan 288 288 290 294 295 294 294 295 297 299 300 300 299 299 301 303 303 303 nan nan nan nan nan nan nan nan 304 304 300 297 295 295 294 293 292 290 288 286 284 282 280
256 247 240 248 247 nan 262 258 261 267 nan 258 266 272 276 279 280 282 283 nan nan nan nan nan nan nan nan nan nan nan nan nan nan nan nan nan nan nan nan nan 285 286 286 290 288 286 288 290 292 292 293 295 298 300 302 300 299 299 299 303 304 303 303 nan nan nan nan nan nan nan nan nan nan nan nan 297 297 296 294 293 291 289 288 287 282 278 279
239 248 238 254 263 261 260 264 nan 260 262 266 270 275 277 279 282 283 nan nan nan nan nan nan nan nan nan nan nan nan nan nan nan nan nan nan nan nan 282 285 286 287 288 290 291 291 292 293 294 295 295 298 299 300 300 300 299 300 302 301 nan nan nan nan nan nan nan nan nan nan nan nan nan nan nan 294 294 294 293 291 289 288 286 282 278 275 275
258 254 252 252 258 265 268 271 263 263 270 275 277 278 280 282 nan nan nan nan nan nan nan nan nan nan nan nan nan nan nan nan nan nan nan nan nan 283 283 283 287 290 290 291 293 294 293 295 297 297 298 300 301 300 300 300 302 302 nan 302 nan nan nan nan nan nan nan nan nan nan nan nan nan 296 296 295 293 291 292 292 291 288 284 282 279 275 272
273 273 275 278 272 271 270 276 nan nan 287 282 282 nan nan nan nan nan nan nan nan nan nan nan nan nan nan nan nan nan nan nan nan nan nan 284 284 285 285 287 287 290 293 294 293 295 297 297 298 300 301 302 301 301 303 305 304 304 304 nan nan nan nan nan nan nan nan nan nan nan nan nan nan nan nan nan nan nan nan nan nan nan nan nan 289 279 276
271 277 275 266 264 259 255 270 279 285 285 285 nan nan nan nan nan nan nan nan nan nan nan nan nan nan nan nan nan nan nan nan nan nan 286 286 286 288 288 290 292 293 295 296 295 296 299 300 301 301 303 304 303 306 308 307 304 304 306 308 nan nan nan nan nan nan nan nan nan nan nan nan nan nan nan 295 nan nan nan nan nan nan nan nan nan nan 298
278 279 274 275 266 266 269 272 278 283 285 285 nan nan nan nan nan nan nan nan nan nan nan nan nan nan nan nan nan nan nan nan 281 283 285 288 288 290 293 295 295 294 292 292 295 298 300 302 302 304 305 306 306 306 304 303 303 306 307 308 309 nan nan nan nan nan nan nan nan nan 299 297 295 292 290 285 285 291 nan nan nan nan nan nan nan nan 313
249 266 271 272 276 280 287 287 289 287 285 nan nan 286 284 nan nan nan nan nan nan nan nan nan nan nan nan nan nan nan nan nan 285 285 nan 292 294 295 295 294 293 290 292 297 302 303 302 303 304 305 307 308 307 nan 306 306 307 310 312 314 314 nan nan nan nan 310 nan 305 305 304 301 298 294 290 288 285 281 273 275 nan nan nan nan nan 307 315 316
282 285 275 274 277 283 280 289 291 286 nan nan 277 280 281 280 nan nan nan nan nan nan nan nan nan nan nan nan nan nan nan 287 288 nan 292 292 293 293 292 290 290 292 298 303 303 303 303 304 306 307 309 nan nan 306 306 310 313 316 317 317 317 316 316 nan 313 311 310 310 310 310 308 304 300 296 293 289 285 276 268 266 271 281 292 305 314 318 307
270 271 282 282 286 282 287 291 284 287 nan 284 283 282 280 nan nan nan nan nan nan nan nan nan nan nan nan nan nan nan nan nan nan 292 291 292 291 291 290 290 292 298 303 302 304 305 305 307 309 310 310 306 306 307 310 314 317 318 319 318 nan nan nan nan 312 nan nan nan nan 316 314 310 304 299 297 293 289 283 277 269 269 272 274 279 287 303 305
264 265 277 282 283 283 284 281 284 284 283 286 288 292 286 nan nan nan nan nan nan nan nan nan nan nan nan nan nan nan nan 289 289 291 291 290 290 292 295 295 297 301 303 305 307 305 306 309 310 309 309 307 308 310 313 318 nan nan nan nan nan nan nan nan nan 316 317 318 320 320 319 315 313 312 307 301 296 291 289 nan nan nan nan 277 279 278 286
267 281 279 272 279 276 275 273 279 281 285 288 292 293 nan nan nan nan nan nan nan nan nan nan nan nan nan nan nan 292 294 294 293 290 291 293 295 296 298 298 300 303 306 307 305 305 308 310 310 309 309 308 311 313 nan nan nan nan nan nan nan nan nan nan nan nan nan 322 325 325 324 324 322 318 314 311 307 303 298 293 287 283 283 278 271 275 286
261 257 264 266 275 275 279 283 284 287 290 290 nan nan nan nan nan 279 nan nan nan nan nan nan nan nan nan nan 292 292 293 293 292 294 295 297 298 299 300 301 305 305 307 306 306 307 309 310 311 310 310 311 nan nan nan nan nan nan nan nan nan nan nan nan nan nan nan nan nan 327 325 323 322 320 nan 316 313 308 305 297 286 284 286 283 282 284 278
266 265 268 275 277 282 284 282 282 288 287 287 nan nan nan nan nan nan 283 285 288 nan nan nan nan nan nan nan 289 292 293 295 297 298 299 301 302 302 302 302 304 305 306 307 308 309 312 313 312 311 312 314 nan nan nan nan nan nan nan nan nan nan nan nan nan nan nan nan 328 325 324 323 322 319 318 314 310 305 298 286 285 289 289 285 287 285 283
274 275 280 279 281 281 278 279 285 285 281 nan nan nan 277 nan nan nan nan nan nan nan nan nan nan nan 290 292 293 294 297 297 300 301 303 301 302 302 304 303 305 307 309 309 310 312 315 313 311 311 316 nan nan nan nan nan nan nan nan nan nan nan nan nan nan nan nan 330 328 327 322 320 320 318 316 316 312 302 289 277 272 279 295 292 287 288 282
276 275 275 275 273 276 277 280 281 281 nan nan 282 278 280 278 275 276 275 nan nan nan nan nan 293 292 293 294 296 297 298 299 301 302 297 297 299 302 301 305 308 310 311 312 316 317 315 312 312 313 nan nan nan nan nan nan nan nan nan nan nan nan nan nan nan nan nan 328 327 324 nan nan nan nan nan 315 310 303 296 283 nan 273 282 283 284 284 287
272 266 265 266 267 270 274 275 274 278 278 nan 282 288 293 nan nan nan nan nan nan nan nan 293 292 292 294 298 300 301 299 298 297 296 297 300 302 303 306 308 310 312 313 315 317 313 313 nan nan nan nan nan nan nan nan nan nan nan nan nan nan nan nan nan nan nan nan 327 nan 326 nan nan nan nan nan nan nan 309 nan nan nan nan nan nan nan nan nan
266 266 267 267 268 272 271 273 275 276 nan 285 nan nan 279 nan nan nan nan nan nan 283 289 292 291 295 301 296 292 296 297 297 297 298 300 302 303 305 308 311 313 314 314 316 311 312 312 nan nan nan nan nan nan nan nan nan nan nan nan nan nan nan nan nan nan nan nan nan nan nan nan nan nan nan nan nan nan nan nan nan nan nan nan nan nan nan nan
266 265 263 262 263 267 267 269 273 nan nan 273 266 270 nan nan nan nan nan nan nan nan 294 291 293 292 287 290 295 297 296 298 300 300 301 302 305 308 310 313 314 315 316 316 311 314 nan nan nan nan nan 335 nan nan nan nan nan nan nan nan nan nan nan nan nan nan nan nan nan nan nan nan nan nan nan nan nan nan nan nan nan nan nan nan nan nan nan
267 264 261 259 259 260 258 257 262 263 266 271 273 275 nan nan nan nan nan nan 275 270 278 281 287 293 296 292 294 299 302 301 303 304 305 305 309 311 312 314 314 314 315 313 313 nan nan nan nan nan nan nan nan nan nan nan nan nan nan nan nan nan nan nan nan nan nan nan nan nan nan nan nan nan nan nan nan nan nan nan nan nan nan nan nan nan nan
267 264 263 259 258 259 260 260 262 267 271 272 nan nan nan nan nan nan nan nan nan 278 277 283 285 284 289 298 302 302 303 305 303 303 305 309 310 312 311 313 315 316 313 315 319 nan nan nan nan nan nan nan nan nan nan nan nan nan nan nan nan nan nan nan nan nan nan nan nan nan nan nan nan nan nan nan nan nan nan nan nan nan nan nan nan nan nan
268 265 262 261 260 261 nan nan nan nan nan nan nan nan nan nan nan nan nan nan nan 289 287 287 288 290 293 299 304 303 304 304 306 310 310 310 309 312 313 314 312 311 314 319 nan 317 318 321 nan nan nan nan nan nan nan nan nan nan nan nan nan nan nan nan nan nan nan nan nan nan nan nan nan nan nan nan nan nan nan nan nan nan nan nan nan nan nan
267 267 267 266 264 264 263 264 265 266 268 nan nan nan nan nan nan nan nan nan nan 285 287 287 290 296 296 298 298 299 302 307 311 311 313 311 313 312 314 312 310 312 314 322 321 320 nan nan nan nan nan nan nan nan nan nan nan nan nan nan nan nan nan nan nan nan nan nan nan nan nan nan nan nan nan nan nan nan nan nan nan nan nan nan nan nan nan
268 269 268 265 267 268 267 267 nan nan nan nan nan 272 nan nan nan nan nan nan nan nan 288 294 297 296 294 293 293 302 308 311 311 317 317 317 314 313 314 312 315 317 316 nan 325 329 332 nan nan nan nan nan nan nan nan nan nan nan nan nan nan nan nan nan nan nan nan nan nan nan nan nan nan nan nan nan nan nan nan nan nan nan nan nan nan nan nan
270 271 271 271 269 269 270 271 273 272 nan nan nan nan nan nan nan nan nan nan nan nan nan 291 294 292 291 294 299 303 310 312 314 315 319 319 318 318 320 321 324 320 nan 326 329 nan nan nan nan nan nan nan nan nan nan nan nan nan nan nan nan nan nan nan nan nan nan nan nan nan nan nan nan nan nan nan nan nan nan nan nan nan nan nan nan nan nan
275 274 275 271 270 271 269 265 250 260 nan 280 nan nan nan nan nan nan nan nan nan nan nan nan 293 301 304 302 305 309 313 315 316 316 317 316 319 319 319 319 323 321 325 326 nan nan nan nan nan nan nan nan nan nan nan nan nan nan nan nan nan nan nan nan nan nan nan nan nan nan nan nan nan nan nan nan nan nan nan nan nan nan nan nan nan nan nan
274 273 272 269 269 270 270 265 265 nan nan nan nan nan nan nan nan nan nan 282 nan nan nan nan nan 294 301 306 307 310 312 312 316 315 315 317 312 313 320 325 319 320 324 nan nan nan nan nan nan nan nan nan nan nan nan nan nan nan nan nan nan nan nan nan nan nan nan nan nan nan nan nan nan nan nan nan nan nan nan nan nan nan nan nan nan nan nan
273 269 272 271 273 271 270 274 273 272 266 258 nan nan nan nan nan nan nan 283 290 285 284 nan nan 300 306 308 310 310 311 311 311 310 317 317 321 322 325 320 321 321 318 nan nan nan nan nan nan nan nan nan nan nan nan nan nan nan nan nan nan nan nan nan nan nan nan nan nan nan nan nan nan nan nan nan nan nan nan nan nan nan nan nan nan nan nan
269 271 272 272 273 272 269 271 273 263 263 nan nan 287 nan nan 282 282 nan nan 286 292 296 300 303 307 nan 308 310 313 318 318 316 312 316 327 330 321 320 322 321 317 324 331 332 nan nan nan nan nan nan nan nan nan nan nan nan nan nan nan nan nan nan nan nan nan nan nan nan nan nan nan nan nan nan nan nan nan nan nan nan nan nan nan nan nan nan
267 262 264 271 270 273 273 267 260 267 266 nan nan nan nan nan nan 281 267 nan 287 291 298 303 306 308 308 311 312 314 315 314 316 320 325 327 326 324 321 321 324 324 329 nan nan nan nan nan nan nan nan nan nan nan nan nan nan nan nan nan nan nan nan nan nan nan nan nan nan nan nan nan nan nan nan nan nan nan nan nan nan nan nan nan nan nan nan
264 271 272 267 270 272 268 266 268 nan nan 273 nan nan nan nan nan nan nan nan nan 300 nan 311 316 317 315 317 318 320 319 312 319 317 321 323 325 322 325 323 314 nan nan nan nan nan nan nan nan nan nan nan nan nan nan nan nan nan nan nan nan nan nan nan nan nan nan nan nan nan nan nan nan nan nan nan nan nan nan nan nan nan nan nan nan nan nan
259 257 264 268 266 264 264 266 268 266 nan nan nan 259 nan nan nan nan nan nan nan nan nan 315 317 317 321 324 322 322 319 320 329 323 322 321 320 317 322 323 319 326 331 nan 320 nan nan nan nan nan nan nan nan nan nan nan nan nan nan nan nan nan nan nan nan nan nan nan nan nan nan nan nan nan nan nan nan nan nan nan nan nan nan nan nan nan nan
269 263 266 265 264 265 266 265 269 263 269 274 275 nan nan nan nan nan nan nan nan nan nan nan nan 322 329 nan 324 319 314 325 326 317 320 324 322 323 321 318 321 317 320 nan nan nan nan nan nan nan nan nan nan nan nan nan nan nan nan nan nan nan nan nan nan nan nan nan nan nan nan nan nan nan nan nan nan nan nan nan nan nan nan nan nan nan nan
252 255 255 255 261 264 265 258 245 241 243 nan nan nan 276 nan nan nan nan nan nan nan nan nan nan nan nan nan 318 324 330 327 326 330 329 324 323 324 318 319 318 321 nan nan nan nan nan nan nan nan nan nan nan nan nan nan nan nan nan nan nan nan nan nan nan nan nan nan nan nan nan nan nan nan nan nan nan nan nan nan nan nan nan nan nan nan nan
262 250 255 258 nan 268 267 nan nan 253 nan nan nan nan nan nan nan nan nan nan nan nan nan nan nan nan nan nan nan 325 328 329 324 324 331 334 327 323 317 321 327 330 334 nan nan 338 nan nan nan nan nan nan nan nan nan nan nan nan nan nan nan nan nan nan nan nan nan nan nan nan nan nan nan nan nan nan nan nan nan nan nan nan nan nan nan nan nan